This is the latest recevied weather packets stored in our database for station/object OK1TBF-15. If no packets are shown the sender has not sent any weather packets the latest 10 day(s).
| Time | Temp. | Humidity | Pressure | Rain* | Wind** | Luminosity | Snow |
|---|---|---|---|---|---|---|---|
| 1778015777 | 16.11° C | 47% | 1005.6 hPa | - | - | - | - |
| 1778015177 | 16.11° C | 47% | 1005.7 hPa | - | - | - | - |
| 1778014577 | 16.11° C | 47% | 1005.8 hPa | - | - | - | - |
| 1778013977 | 16.11° C | 48% | 1006 hPa | - | - | - | - |
| 1778013377 | 16.67° C | 46% | 1005.9 hPa | - | - | - | - |
| 1778012777 | 16.67° C | 46% | 1005.9 hPa | - | - | - | - |
| 1778012177 | 17.22° C | 44% | 1005.8 hPa | - | - | - | - |
| 1778011577 | 17.22° C | 44% | 1005.7 hPa | - | - | - | - |
| 1778010977 | 17.78° C | 43% | 1005.7 hPa | - | - | - | - |
| 1778010377 | 17.78° C | 43% | 1005.6 hPa | - | - | - | - |
| 1778009777 | 17.78° C | 42% | 1005.4 hPa | - | - | - | - |
| 1778009177 | 18.33° C | 41% | 1005.3 hPa | - | - | - | - |
| 1778008577 | 18.33° C | 41% | 1005.5 hPa | - | - | - | - |
| 1778007977 | 18.89° C | 39% | 1005.4 hPa | - | - | - | - |
| 1778007377 | 18.89° C | 37% | 1005.3 hPa | - | - | - | - |
| 1778006777 | 18.33° C | 36% | 1005.3 hPa | - | - | - | - |
| 1778006177 | 18.33° C | 32% | 1005.2 hPa | - | - | - | - |
| 1778005577 | 18.33° C | 33% | 1005.2 hPa | - | - | - | - |
| 1778004977 | 17.78° C | 33% | 1005.2 hPa | - | - | - | - |
| 1778004377 | 18.33° C | 34% | 1005.2 hPa | - | - | - | - |
| 1778003777 | 18.33° C | 36% | 1005.2 hPa | - | - | - | - |
| 1778003177 | 19.44° C | 33% | 1005.3 hPa | - | - | - | - |
| 1778002577 | 19.44° C | 28% | 1005.4 hPa | - | - | - | - |
| 1778001977 | 20° C | 30% | 1005.4 hPa | - | - | - | - |
| 1778001377 | 20° C | 29% | 1005.5 hPa | - | - | - | - |
* Rain since midnight (hover to see other rain measurements)
** Current wind speed in m/s (hover to see current wind gust speed)